CZ-7A R/B (55132 NORAD) Tracking and Keplerian Element Data

This shows tracking and keplerian element data for the satellite.

Feedback or suggestion? Click here.




ElementValue
Catalog55132
NameCZ-7A R/B
Epoch Orbit3
Epoch Day9.97698942
Epoch Year2023
RAAN98.7666
Inclination16.4363
Eccentricity0.7220235
Argument of Perigee179.1481
Mean Anonmoly183.5243
Mean Motion2.41091142
Decay Rate0.00211478
L11 55132U 23002B 23009.97698942 .00211478 26843-6 26840-2 0 9995
L22 55132 16.4363 98.7666 7220235 179.1481 183.5243 2.41091142 38



Live tracking and technical data element details for CZ-7A R/B (NORAD 55132). CZ-7A R/B can be tracked NOW for your location showing map with azimuth and elevation plus other details from your city location.







IsCatalogInMostPopularTable: catalog: 55132, numindb: 7
Update: records affected: 1



GetName: 55132 CZ-7A R/B

Hit Count: updated at: Mon, 27 Mar 2023 06:33:48 GMT